Location: Bagnara
(41.0500°N, 14.7833°E)
Time: 09:31:12
(UTC+00:00)

GPS 2-04 Rocket1 - Pass Details

Date: 20 June 2021
Orbit: 415 x 539 km, 35.6° (Epoch: 27 July)

Event Time Altitude Azimuth Distance (km) Brightness Sun altitude
Exits shadow 02:14:56 16° 246° (WSW) 1,391 4.3 -11.6°
Maximum altitude 02:17:36 35° 187° (S) 820 3.3 -11.2°
Drops below altitude 10° 02:21:07 10° 120° (ESE) 1,662 5.5 -10.8°
Sets 02:23:22 0° 111° (ESE) 2,516 6.5 -10.5°
